THY2116 LTFM-LTAC

Flight info

Callsign THY2116
Flight time 1h 15m
Altitude 27000
Route VICEN1D/35L VICEN T380 ASMAP L333 LATGA
Aircraft A320/M-SDE3FGHIRWY/LB1

Departure

Time 2026-05-03 21:34
Airport İstanbul Airport (LTFM)

Arrival

Time 2026-05-03 22:49
Airport Esenboğa International Airport (LTAC)
Time Latitude Longitude Altitude Speed Heading
2026-05-03 20:18 41.26642 28.73434 334 ft 0 kts 71°
2026-05-03 21:21 41.26637 28.73414 331 ft 4 kts 68°
2026-05-03 21:21 41.26625 28.73382 332 ft 4 kts 56°
2026-05-03 21:21 41.26608 28.73357 332 ft 4 kts 21°
2026-05-03 21:21 41.26594 28.73353 332 ft 0 kts 345°
2026-05-03 21:29 41.26595 28.73353 334 ft 1 kts 345°
2026-05-03 21:29 41.26602 28.73344 332 ft 2 kts 303°
2026-05-03 21:29 41.26601 28.73319 334 ft 4 kts 266°
2026-05-03 21:29 41.26600 28.73272 334 ft 6 kts 270°
2026-05-03 21:30 41.26599 28.73230 334 ft 8 kts 268°
2026-05-03 21:30 41.26598 28.73150 332 ft 10 kts 269°
2026-05-03 21:30 41.26597 28.73053 333 ft 11 kts 269°
2026-05-03 21:30 41.26596 28.72939 331 ft 13 kts 268°
2026-05-03 21:31 41.26594 28.72806 334 ft 15 kts 269°
2026-05-03 21:31 41.26592 28.72671 334 ft 0 kts 269°
2026-05-03 21:31 41.26592 28.72670 334 ft 0 kts 269°
2026-05-03 21:32 41.26592 28.72655 331 ft 3 kts 269°
2026-05-03 21:32 41.26592 28.72618 334 ft 5 kts 269°
2026-05-03 21:32 41.26594 28.72560 334 ft 7 kts 280°
2026-05-03 21:33 41.26634 28.72517 332 ft 8 kts 353°
2026-05-03 21:33 41.26644 28.72516 334 ft 0 kts 355°
2026-05-03 21:33 41.26650 28.72515 332 ft 12 kts 355°
2026-05-03 21:33 41.27003 28.72510 330 ft 83 kts 359°
2026-05-03 21:34 41.27755 28.72492 333 ft 131 kts 359°
2026-05-03 21:34 41.28762 28.72458 648 ft 149 kts 359°
2026-05-03 21:34 41.29826 28.72394 1273 ft 156 kts 358°
2026-05-03 21:34 41.30913 28.72361 2035 ft 155 kts
2026-05-03 21:35 41.32026 28.72386 2474 ft 169 kts
2026-05-03 21:35 41.33292 28.72425 2796 ft 194 kts
2026-05-03 21:35 41.34727 28.72465 3193 ft 218 kts
2026-05-03 21:35 41.36293 28.72488 3882 ft 230 kts
2026-05-03 21:36 41.37844 28.71819 4664 ft 249 kts 329°
2026-05-03 21:36 41.38914 28.69926 5139 ft 270 kts 294°
2026-05-03 21:36 41.39132 28.67388 5639 ft 283 kts 272°
2026-05-03 21:36 41.38921 28.64763 6139 ft 287 kts 266°
2026-05-03 21:37 41.38613 28.62116 6844 ft 291 kts 266°
2026-05-03 21:37 41.38122 28.59475 7652 ft 301 kts 248°
2026-05-03 21:37 41.36903 28.57185 8429 ft 309 kts 224°
2026-05-03 21:37 41.35107 28.55616 9224 ft 312 kts 199°
2026-05-03 21:38 41.32993 28.55118 10009 ft 309 kts 176°
2026-05-03 21:38 41.30800 28.55116 10444 ft 325 kts 175°
2026-05-03 21:38 41.28469 28.55287 10642 ft 346 kts 168°
2026-05-03 21:38 41.26077 28.56067 10861 ft 360 kts 156°
2026-05-03 21:39 41.23798 28.57476 11407 ft 362 kts 145°
2026-05-03 21:39 41.21752 28.59416 12055 ft 361 kts 135°
2026-05-03 21:39 41.19927 28.61714 12740 ft 363 kts 132°
2026-05-03 21:39 41.18103 28.64047 13441 ft 366 kts 133°
2026-05-03 21:40 41.16258 28.66398 14093 ft 369 kts 133°
2026-05-03 21:40 41.14398 28.68765 14665 ft 373 kts 132°
2026-05-03 21:40 41.12606 28.71256 15205 ft 373 kts 124°
2026-05-03 21:40 41.11139 28.74074 15764 ft 373 kts 119°
2026-05-03 21:41 41.09728 28.76968 16317 ft 375 kts 119°
2026-05-03 21:41 41.08297 28.79878 16901 ft 378 kts 119°
2026-05-03 21:41 41.06852 28.82810 17486 ft 381 kts 119°
2026-05-03 21:41 41.05399 28.85758 18055 ft 383 kts 119°
2026-05-03 21:42 41.03935 28.88725 18584 ft 386 kts 119°
2026-05-03 21:42 41.02444 28.91700 19074 ft 390 kts 122°
2026-05-03 21:42 41.00654 28.94443 19573 ft 397 kts 131°
2026-05-03 21:42 40.98696 28.96980 20099 ft 400 kts 132°
2026-05-03 21:43 40.96706 28.99560 20611 ft 402 kts 132°
2026-05-03 21:43 40.94708 29.02159 21071 ft 405 kts 132°
2026-05-03 21:43 40.92695 29.04778 21516 ft 408 kts 132°
2026-05-03 21:43 40.90668 29.07413 21924 ft 410 kts 132°
2026-05-03 21:44 40.88625 29.10065 22355 ft 413 kts 132°
2026-05-03 21:44 40.86630 29.12811 22765 ft 414 kts 126°
2026-05-03 21:44 40.84979 29.15924 23190 ft 414 kts 117°
2026-05-03 21:44 40.83744 29.19356 23590 ft 414 kts 108°
2026-05-03 21:45 40.82928 29.22995 23949 ft 414 kts 102°
2026-05-03 21:45 40.82207 29.26669 24342 ft 415 kts 103°
2026-05-03 21:45 40.81477 29.30360 24716 ft 416 kts 103°
2026-05-03 21:45 40.80741 29.34051 25120 ft 416 kts 103°
2026-05-03 21:46 40.80003 29.37742 25533 ft 416 kts 103°
2026-05-03 21:46 40.79264 29.41435 25953 ft 416 kts 103°
2026-05-03 21:46 40.78524 29.45127 26381 ft 416 kts 103°
2026-05-03 21:46 40.77783 29.48824 26770 ft 417 kts 104°
2026-05-03 21:47 40.77044 29.52515 26937 ft 416 kts 104°
2026-05-03 21:47 40.76306 29.56214 26969 ft 416 kts 104°
2026-05-03 21:47 40.75580 29.59846 26959 ft 400 kts 104°
2026-05-03 21:47 40.74873 29.63371 26968 ft 402 kts 104°
2026-05-03 21:48 40.74144 29.66993 26966 ft 415 kts 104°
2026-05-03 21:48 40.73546 29.70721 26964 ft 415 kts 97°
2026-05-03 21:48 40.73369 29.74518 26965 ft 415 kts 91°
2026-05-03 21:48 40.73304 29.78318 26967 ft 415 kts 91°
2026-05-03 21:49 40.73240 29.82124 26967 ft 415 kts 91°
2026-05-03 21:49 40.73172 29.85917 26969 ft 412 kts 92°
2026-05-03 21:49 40.73103 29.89684 26971 ft 410 kts 92°
2026-05-03 21:49 40.73032 29.93434 26972 ft 409 kts 92°
2026-05-03 21:50 40.72960 29.97189 26969 ft 410 kts 92°
2026-05-03 21:50 40.72885 30.00947 26981 ft 410 kts 92°
2026-05-03 21:50 40.72768 30.04700 26979 ft 410 kts 96°
2026-05-03 21:50 40.72265 30.08389 26978 ft 410 kts 104°
2026-05-03 21:51 40.71372 30.11962 26991 ft 410 kts 108°
2026-05-03 21:51 40.70431 30.15504 26986 ft 410 kts 108°
2026-05-03 21:51 40.69490 30.19051 26984 ft 410 kts 108°
2026-05-03 21:51 40.68551 30.22591 26980 ft 409 kts 108°
2026-05-03 21:52 40.67611 30.26132 26975 ft 409 kts 108°
2026-05-03 21:52 40.66747 30.29702 26963 ft 408 kts 102°
2026-05-03 21:52 40.66287 30.33382 26961 ft 408 kts 96°
2026-05-03 21:52 40.65986 30.37099 26955 ft 408 kts 96°
2026-05-03 21:53 40.65682 30.40806 26959 ft 408 kts 96°
2026-05-03 21:53 40.65375 30.44517 26956 ft 407 kts 96°
2026-05-03 21:53 40.65069 30.48224 26953 ft 407 kts 96°
2026-05-03 21:53 40.64762 30.51925 26934 ft 406 kts 96°
2026-05-03 21:54 40.64455 30.55622 26927 ft 406 kts 96°
2026-05-03 21:54 40.64144 30.59317 26925 ft 406 kts 96°
2026-05-03 21:54 40.63831 30.63007 26911 ft 406 kts 96°
2026-05-03 21:54 40.63516 30.66698 26910 ft 406 kts 96°
2026-05-03 21:55 40.63184 30.70386 26907 ft 406 kts 98°
2026-05-03 21:55 40.62541 30.74006 26890 ft 406 kts 104°
2026-05-03 21:55 40.61782 30.77591 26888 ft 407 kts 104°
2026-05-03 21:55 40.61023 30.81173 26887 ft 406 kts 104°
2026-05-03 21:56 40.60264 30.84759 26885 ft 406 kts 104°
2026-05-03 21:56 40.59503 30.88341 26884 ft 406 kts 104°
2026-05-03 21:56 40.58742 30.91921 26883 ft 406 kts 104°
2026-05-03 21:56 40.57981 30.95502 26887 ft 407 kts 104°
2026-05-03 21:57 40.57219 30.99086 26869 ft 407 kts 104°
2026-05-03 21:57 40.56460 31.02665 26869 ft 407 kts 104°
2026-05-03 21:57 40.55698 31.06249 26867 ft 407 kts 104°
2026-05-03 21:57 40.54936 31.09826 26860 ft 407 kts 104°
2026-05-03 21:58 40.54171 31.13405 26856 ft 407 kts 104°
2026-05-03 21:58 40.53400 31.16989 26858 ft 407 kts 104°
2026-05-03 21:58 40.52628 31.20561 26838 ft 407 kts 104°
2026-05-03 21:58 40.51854 31.24145 26838 ft 407 kts 104°
2026-05-03 21:59 40.51081 31.27722 26835 ft 408 kts 104°
2026-05-03 21:59 40.50305 31.31308 26816 ft 408 kts 104°
2026-05-03 21:59 40.49527 31.34895 26810 ft 409 kts 104°
2026-05-03 21:59 40.48745 31.38490 26814 ft 409 kts 104°
2026-05-03 22:00 40.47958 31.42089 26819 ft 411 kts 105°
2026-05-03 22:00 40.47163 31.45725 26914 ft 418 kts 104°
2026-05-03 22:00 40.46353 31.49448 26826 ft 426 kts 104°
2026-05-03 22:00 40.45549 31.53137 26776 ft 417 kts 104°
2026-05-03 22:01 40.44753 31.56783 26509 ft 415 kts 104°
2026-05-03 22:01 40.43957 31.60432 26254 ft 416 kts 104°
2026-05-03 22:01 40.43160 31.64085 26003 ft 418 kts 104°
2026-05-03 22:01 40.42358 31.67752 25736 ft 419 kts 104°
2026-05-03 22:02 40.41549 31.71433 25492 ft 420 kts 104°
2026-05-03 22:02 40.40736 31.75111 25244 ft 420 kts 104°
2026-05-03 22:02 40.39922 31.78790 25069 ft 419 kts 104°
2026-05-03 22:02 40.39109 31.82466 25104 ft 420 kts 104°
2026-05-03 22:03 40.38295 31.86151 25103 ft 421 kts 104°
2026-05-03 22:03 40.37481 31.89823 25091 ft 422 kts 105°
2026-05-03 22:03 40.36653 31.93533 24881 ft 422 kts 104°
2026-05-03 22:03 40.35830 31.97225 24633 ft 421 kts 104°
2026-05-03 22:04 40.35009 32.00886 23989 ft 418 kts 104°
2026-05-03 22:04 40.34189 32.04536 23253 ft 417 kts 103°
2026-05-03 22:04 40.33623 32.08232 22526 ft 411 kts 94°
2026-05-03 22:04 40.33535 32.11956 21945 ft 407 kts 85°
2026-05-03 22:05 40.33874 32.15619 21385 ft 404 kts 81°
2026-05-03 22:05 40.34297 32.19242 20814 ft 401 kts 81°
2026-05-03 22:05 40.34709 32.22843 20252 ft 398 kts 81°
2026-05-03 22:05 40.35113 32.26425 19700 ft 395 kts 81°
2026-05-03 22:06 40.35513 32.29974 19160 ft 393 kts 81°
2026-05-03 22:06 40.35722 32.33490 18623 ft 391 kts 90°
2026-05-03 22:06 40.35448 32.37030 18115 ft 391 kts 99°
2026-05-03 22:06 40.34804 32.40500 17140 ft 396 kts 103°
2026-05-03 22:07 40.34117 32.44024 16160 ft 400 kts 103°
2026-05-03 22:07 40.33426 32.47536 15505 ft 395 kts 103°
2026-05-03 22:07 40.32742 32.50999 14910 ft 390 kts 103°
2026-05-03 22:07 40.32072 32.54414 14283 ft 386 kts 104°
2026-05-03 22:08 40.31239 32.57737 13671 ft 382 kts 114°
2026-05-03 22:08 40.29939 32.60740 13017 ft 377 kts 126°
2026-05-03 22:08 40.28201 32.63241 12846 ft 366 kts 137°
2026-05-03 22:08 40.26084 32.65074 12841 ft 367 kts 152°
2026-05-03 22:09 40.23651 32.66078 12831 ft 365 kts 169°
2026-05-03 22:09 40.21166 32.66117 12743 ft 351 kts 185°
2026-05-03 22:09 40.18870 32.65428 12601 ft 326 kts 191°
2026-05-03 22:10 40.14698 32.64053 11841 ft 301 kts 190°
2026-05-03 22:10 40.12666 32.63408 11201 ft 299 kts 190°
2026-05-03 22:10 40.10643 32.62881 10563 ft 293 kts 179°
2026-05-03 22:10 40.08694 32.63370 9953 ft 284 kts 153°
2026-05-03 22:11 40.07194 32.64973 9319 ft 281 kts 126°
2026-05-03 22:11 40.06423 32.67304 8630 ft 282 kts 106°
2026-05-03 22:11 40.05965 32.69776 8116 ft 275 kts 105°
2026-05-03 22:11 40.05472 32.72102 7985 ft 259 kts 115°
2026-05-03 22:12 40.04593 32.74064 7985 ft 243 kts 128°
2026-05-03 22:12 40.03620 32.75810 7987 ft 232 kts 127°
2026-05-03 22:12 40.02692 32.77474 7987 ft 221 kts 127°
2026-05-03 22:12 40.01792 32.79082 7990 ft 220 kts 127°
2026-05-03 22:13 40.00893 32.80686 7989 ft 218 kts 127°
2026-05-03 22:13 40.00015 32.82254 7990 ft 217 kts 127°
2026-05-03 22:13 39.99138 32.83849 7996 ft 216 kts 124°
2026-05-03 22:13 39.98577 32.84957 7996 ft 217 kts 126°
2026-05-03 22:14 39.97575 32.87204 7988 ft 220 kts 109°
2026-05-03 22:14 39.97597 32.89241 7430 ft 241 kts 71°
2026-05-03 22:14 39.98695 32.90989 6784 ft 267 kts 36°
2026-05-03 22:14 39.99894 32.91603 6306 ft 285 kts 15°
2026-05-03 22:15 40.01909 32.92056 5505 ft 301 kts 18°
2026-05-03 22:15 40.03858 32.93136 4683 ft 308 kts 34°
2026-05-03 22:15 40.05604 32.94759 4197 ft 308 kts 38°
2026-05-03 22:15 40.07305 32.96374 3804 ft 294 kts 38°
2026-05-03 22:16 40.08927 32.97918 3518 ft 283 kts 38°
2026-05-03 22:16 40.10460 32.99354 3826 ft 257 kts 36°
2026-05-03 22:16 40.11858 33.00576 4264 ft 226 kts 35°
2026-05-03 22:16 40.13100 33.01583 4536 ft 201 kts 36°
2026-05-03 22:17 40.14186 33.02505 4768 ft 173 kts 36°
2026-05-03 22:17 40.15161 33.03330 4645 ft 165 kts 38°
2026-05-03 22:17 40.16129 33.04224 4406 ft 187 kts 38°
2026-05-03 22:17 40.17252 33.05142 5540 ft 181 kts 27°
2026-05-03 22:18 40.18507 33.05607 6434 ft 205 kts
2026-05-03 22:18 40.20016 33.05400 7173 ft 226 kts 347°
2026-05-03 22:18 40.21522 33.04610 7819 ft 253 kts 341°
2026-05-03 22:18 40.23375 33.04201 7987 ft 291 kts
2026-05-03 22:19 40.25378 33.04602 9165 ft 276 kts 14°
2026-05-03 22:19 40.27100 33.04844 11375 ft 224 kts
2026-05-03 22:19 40.28530 33.04562 12967 ft 202 kts 345°
2026-05-03 22:19 40.29857 33.03559 12957 ft 252 kts 316°
2026-05-03 22:20 40.31037 33.01497 12596 ft 310 kts 297°
2026-05-03 22:20 40.31878 32.98784 13163 ft 330 kts 284°
2026-05-03 22:20 40.32293 32.95785 13955 ft 341 kts 272°
2026-05-03 22:20 40.32200 32.92593 14272 ft 367 kts 256°
2026-05-03 22:21 40.31212 32.89501 14273 ft 362 kts 233°
2026-05-03 22:21 40.29515 32.87237 14274 ft 338 kts 211°
2026-05-03 22:21 40.27500 32.85844 14274 ft 320 kts 201°
2026-05-03 22:21 40.25521 32.84645 14273 ft 307 kts 201°
2026-05-03 22:22 40.23624 32.83485 14273 ft 295 kts 201°
2026-05-03 22:22 40.21805 32.82367 14281 ft 283 kts 201°
2026-05-03 22:22 40.20064 32.81296 14271 ft 270 kts 201°
2026-05-03 22:22 40.18338 32.80244 13722 ft 282 kts 200°
2026-05-03 22:23 40.16521 32.79151 13019 ft 297 kts 201°
2026-05-03 22:23 40.14634 32.78011 12548 ft 301 kts 201°
2026-05-03 22:23 40.12729 32.76852 12101 ft 304 kts 201°
2026-05-03 22:23 40.10802 32.75677 11638 ft 307 kts 202°
2026-05-03 22:24 40.08836 32.74521 11051 ft 312 kts 197°
2026-05-03 22:24 40.06713 32.74143 10585 ft 308 kts 173°
2026-05-03 22:24 40.04681 32.74932 10071 ft 306 kts 150°
2026-05-03 22:24 40.03081 32.76753 9563 ft 310 kts 128°
2026-05-03 22:25 40.01836 32.79009 9298 ft 303 kts 127°
2026-05-03 22:25 40.00592 32.81251 8630 ft 308 kts 127°
2026-05-03 22:25 39.99321 32.83524 8036 ft 311 kts 126°
2026-05-03 22:25 39.98410 32.86068 7513 ft 314 kts 102°
2026-05-03 22:26 39.98572 32.88901 7027 ft 320 kts 72°
2026-05-03 22:26 39.99813 32.91304 6566 ft 326 kts 44°
2026-05-03 22:26 40.01694 32.92996 6089 ft 331 kts 32°
2026-05-03 22:26 40.03790 32.94267 5407 ft 336 kts 18°
2026-05-03 22:27 40.06075 32.95086 4583 ft 342 kts 22°
2026-05-03 22:27 40.08122 32.96463 4659 ft 325 kts 37°
2026-05-03 22:27 40.09971 32.98323 5176 ft 342 kts 42°
2026-05-03 22:27 40.11850 33.00408 5543 ft 362 kts 42°
2026-05-03 22:28 40.13718 33.02440 6799 ft 331 kts 42°
2026-05-03 22:28 40.15403 33.04216 7413 ft 294 kts 42°
2026-05-03 22:28 40.16778 33.05992 7676 ft 265 kts 56°
2026-05-03 22:28 40.17667 33.07957 7894 ft 239 kts 71°
2026-05-03 22:29 40.18086 33.09958 7991 ft 222 kts 86°
2026-05-03 22:29 40.18100 33.11965 8001 ft 221 kts 101°
2026-05-03 22:29 40.17747 33.13885 8107 ft 214 kts 114°
2026-05-03 22:29 40.17080 33.15629 8366 ft 214 kts 125°
2026-05-03 22:30 40.16137 33.17132 8626 ft 214 kts 137°
2026-05-03 22:30 40.14957 33.18325 8876 ft 217 kts 149°
2026-05-03 22:30 40.13580 33.19153 8981 ft 218 kts 162°
2026-05-03 22:30 40.12099 33.19538 8995 ft 216 kts 173°
2026-05-03 22:31 40.10598 33.19618 9001 ft 216 kts 179°
2026-05-03 22:31 40.09136 33.19137 9008 ft 223 kts 204°
2026-05-03 22:31 40.08002 33.17709 8994 ft 236 kts 237°
2026-05-03 22:31 40.07626 33.15591 9009 ft 249 kts 271°
2026-05-03 22:32 40.08218 33.13464 9014 ft 254 kts 299°
2026-05-03 22:32 40.09152 33.11487 8998 ft 257 kts 300°
2026-05-03 22:32 40.10094 33.09525 9005 ft 259 kts 300°
2026-05-03 22:32 40.11049 33.07537 8996 ft 258 kts 300°
2026-05-03 22:33 40.12001 33.05545 9002 ft 258 kts 300°
2026-05-03 22:33 40.12950 33.03549 9007 ft 258 kts 299°
2026-05-03 22:33 40.13889 33.01563 9004 ft 256 kts 300°
2026-05-03 22:33 40.14818 32.99590 8998 ft 254 kts 300°
2026-05-03 22:34 40.15745 32.97620 9003 ft 254 kts 300°
2026-05-03 22:34 40.16671 32.95648 9009 ft 254 kts 300°
2026-05-03 22:34 40.17596 32.93681 9011 ft 254 kts 300°
2026-05-03 22:34 40.18518 32.91719 9005 ft 253 kts 300°
2026-05-03 22:35 40.19439 32.89758 9006 ft 252 kts 300°
2026-05-03 22:35 40.20356 32.87801 9010 ft 252 kts 300°
2026-05-03 22:35 40.21270 32.85849 9006 ft 251 kts 300°
2026-05-03 22:35 40.22187 32.83895 8998 ft 252 kts 300°
2026-05-03 22:36 40.23108 32.81935 9007 ft 253 kts 300°
2026-05-03 22:36 40.24033 32.79959 8802 ft 255 kts 300°
2026-05-03 22:36 40.24866 32.77932 8608 ft 252 kts 287°
2026-05-03 22:36 40.25067 32.75735 8536 ft 237 kts 261°
2026-05-03 22:37 40.24598 32.73742 8485 ft 227 kts 236°
2026-05-03 22:37 40.23602 32.72203 8445 ft 214 kts 212°
2026-05-03 22:37 40.22370 32.71348 8394 ft 189 kts 191°
2026-05-03 22:37 40.21147 32.71111 8335 ft 168 kts 173°
2026-05-03 22:38 40.20035 32.71202 8284 ft 157 kts 169°
2026-05-03 22:38 40.18940 32.71299 8228 ft 159 kts 170°
2026-05-03 22:38 40.17842 32.71395 8093 ft 158 kts 171°
2026-05-03 22:38 40.16757 32.71486 7958 ft 154 kts 172°
2026-05-03 22:39 40.15701 32.71573 7961 ft 151 kts 172°
2026-05-03 22:39 40.14634 32.71664 7990 ft 153 kts 172°
2026-05-03 22:39 40.13572 32.71757 7992 ft 153 kts 172°
2026-05-03 22:39 40.12510 32.71849 7997 ft 153 kts 172°
2026-05-03 22:40 40.11449 32.71939 7994 ft 152 kts 172°
2026-05-03 22:40 40.10392 32.72030 7994 ft 153 kts 172°
2026-05-03 22:40 40.09331 32.72121 7995 ft 153 kts 171°
2026-05-03 22:40 40.08262 32.72213 8000 ft 154 kts 172°
2026-05-03 22:41 40.07197 32.72312 7998 ft 153 kts 168°
2026-05-03 22:41 40.06180 32.72651 7998 ft 150 kts 156°
2026-05-03 22:41 40.05285 32.73291 7974 ft 149 kts 143°
2026-05-03 22:41 40.04549 32.74174 7753 ft 139 kts 131°
2026-05-03 22:42 40.03976 32.75181 7551 ft 136 kts 127°
2026-05-03 22:42 40.03420 32.76175 7368 ft 136 kts 127°
2026-05-03 22:42 40.02853 32.77185 6966 ft 138 kts 127°
2026-05-03 22:42 40.02275 32.78216 6358 ft 145 kts 126°
2026-05-03 22:43 40.01673 32.79289 5714 ft 149 kts 126°
2026-05-03 22:43 40.01070 32.80362 5297 ft 139 kts 125°
2026-05-03 22:43 40.00517 32.81348 5297 ft 135 kts 126°
2026-05-03 22:43 39.99965 32.82333 5299 ft 134 kts 124°
2026-05-03 22:44 39.99422 32.83304 5164 ft 132 kts 124°
2026-05-03 22:44 39.98875 32.84277 5036 ft 134 kts 123°
2026-05-03 22:44 39.98391 32.85314 4911 ft 133 kts 109°
2026-05-03 22:44 39.98261 32.86506 4788 ft 133 kts 85°
2026-05-03 22:45 39.98518 32.87657 4694 ft 132 kts 65°
2026-05-03 22:45 39.99114 32.88587 4756 ft 138 kts 43°
2026-05-03 22:45 39.99892 32.89318 4687 ft 135 kts 40°
2026-05-03 22:45 40.00668 32.90055 4675 ft 139 kts 42°
2026-05-03 22:46 40.01455 32.90803 4663 ft 142 kts 39°
2026-05-03 22:46 40.02249 32.91559 4689 ft 141 kts 43°
2026-05-03 22:46 40.03039 32.92310 4691 ft 142 kts 43°
2026-05-03 22:46 40.03836 32.93068 4696 ft 141 kts 42°
2026-05-03 22:47 40.04633 32.93822 4585 ft 143 kts 41°
2026-05-03 22:47 40.05443 32.94557 4323 ft 142 kts 38°
2026-05-03 22:47 40.06240 32.95331 4142 ft 141 kts 42°
2026-05-03 22:47 40.07026 32.96091 3892 ft 141 kts 42°
2026-05-03 22:48 40.07805 32.96823 3751 ft 135 kts 41°
2026-05-03 22:48 40.08548 32.97551 3524 ft 136 kts 39°
2026-05-03 22:48 40.09315 32.98264 3351 ft 136 kts 41°
2026-05-03 22:48 40.10067 32.98992 3162 ft 134 kts 39°
2026-05-03 22:49 40.10759 32.99671 3116 ft 100 kts 37°
2026-05-03 22:49 40.11151 33.00041 3125 ft 61 kts 37°
2026-05-03 22:49 40.11410 33.00277 3133 ft 22 kts 33°
2026-05-03 22:49 40.11539 33.00235 3135 ft 22 kts 304°
2026-05-03 22:50 40.11632 33.00069 3129 ft 21 kts 305°
2026-05-03 22:50 40.11692 32.99959 3123 ft 17 kts 306°
2026-05-03 22:50 40.11778 32.99809 3115 ft 23 kts 305°
2026-05-03 22:50 40.11787 32.99645 3113 ft 18 kts 264°
2026-05-03 22:51 40.11778 32.99472 3113 ft 20 kts 259°
2026-05-03 22:51 40.11742 32.99283 3113 ft 22 kts 250°
2026-05-03 22:51 40.11711 32.99194 3113 ft 8 kts 246°
2026-05-03 22:51 40.11682 32.99117 3113 ft 11 kts 240°
2026-05-03 22:52 40.11637 32.99031 3113 ft 13 kts 235°
2026-05-03 22:52 40.11578 32.98938 3113 ft 14 kts 226°
2026-05-03 22:52 40.11567 32.98923 3113 ft 2 kts 224°
2026-05-03 22:52 40.11552 32.98904 3113 ft 4 kts 224°
2026-05-03 22:53 40.11524 32.98869 3113 ft 7 kts 224°
2026-05-03 22:53 40.11479 32.98825 3113 ft 9 kts 215°
2026-05-03 22:53 40.11422 32.98773 3113 ft 11 kts 215°
2026-05-03 22:53 40.11356 32.98729 3113 ft 10 kts 177°
2026-05-03 22:54 40.11322 32.98768 3112 ft 1 kts 127°
2026-05-03 22:54 40.11317 32.98777 3112 ft 0 kts 127°